Regional Weather Roundup
Issued by NWS

Home | Current Version | Previous Version | Text Only | Print | Product List | Glossary Off
Versions: 1 2 3 4 5 6 7 8 9 10 11 12 13 14 15 16 17 18 19 20 21 22 23 24 25 26 27 28 29 30 31 32 33 34 35 36 37 38 39 40 41 42 43 44 45 46 47 48 49 50

000
ASUS43 KOAX 050110
RWRNE

WEATHER ROUNDUP FOR NEBRASKA
NATIONAL WEATHER SERVICE OMAHA NE
800 PM CDT SAT JUL 04 2015

NOTES: SATELLITE DATA IS BEING USED TO AUGMENT CLOUD COVER ABOVE
       12000 FEET.
       "FAIR" INDICATES FEW OR NO CLOUDS BELOW 12,000 FEET WITH NO
       SIGNIFICANT WEATHER AND/OR OBSTRUCTIONS TO VISIBILITY.

  * THESE STATIONS DO NOT REPORT WEATHER SUCH AS RAIN...SNOW OR FOG.

NEZ001>004-019>022-054>056-050200-
NEBRASKA PANHANDLE

CITY           SKY/WX    TMP DP  RH WIND       PRES   REMARKS
SCOTTSBLUFF    MOSUNNY   74  66  76 E7G31     29.84F
ALLIANCE       PTSUNNY   83  62  49 SE14      29.83F
CHADRON        SUNNY     90  62  39 S3        29.78F HX  90
KIMBALL          N/A    N/A N/A N/A MISG        N/A
SIDNEY         SUNNY     89  56  32 SE12      29.88S
$$

NEZ057>060-069>072-079>082-050200-
SOUTHWEST NEBRASKA

CITY           SKY/WX    TMP DP  RH WIND       PRES   REMARKS
NORTH PLATTE   MOSUNNY   85  62  46 SE9       29.83F
IMPERIAL       MOSUNNY   91  60  35 SE16      29.83F HX  90
LEXINGTON      SUNNY     85  66  51 SE13G18   29.86F
MCCOOK         MOSUNNY   89  61  38 SE17      29.83F
OGALLALA       CLOUDY    85  62  45 SE7       29.83S
$$

NEZ005>010-023>029-035>040-094-050200-
NORTH CENTRAL NEBRASKA

CITY           SKY/WX    TMP DP  RH WIND       PRES   REMARKS
VALENTINE      PTSUNNY   87  65  47 S15G23    29.80S
AINSWORTH      MOSUNNY   83  66  57 S13       29.84S
BROKEN BOW     SUNNY     84  65  52 S15G26    29.87F
O`NEILL        SUNNY     82  67  61 S12       29.86R
ORD            SUNNY     83  65  54 S12G22    29.85F
THEDFORD       SUNNY     86  66  49 S16G22    29.85F
$$

NEZ041-046>049-061>064-073>077-083>087-050200-
SOUTH CENTRAL NEBRASKA

CITY           SKY/WX    TMP DP  RH WIND       PRES   REMARKS
GRAND ISLAND   SUNNY     81  65  58 SE10      29.89F
AURORA         SUNNY     80  64  57 SE9       29.89F
HASTINGS       SUNNY     81  65  58 SE12      29.89F
HEBRON         CLEAR     81  63  53 SE6       29.90S
HOLDREGE       SUNNY     83  63  50 SE10      29.87F
KEARNEY *      SUNNY     82  64  54 SE13      29.88S
YORK           SUNNY     79  66  65 S8        29.89F
$$

NEZ011>018-030>034-042>045-050200-
NORTHEAST NEBRASKA

CITY           SKY/WX    TMP DP  RH WIND       PRES   REMARKS
NORFOLK        SUNNY     79  66  64 SE10      29.88F
ALBION         SUNNY     79  65  62 SE10      29.88F
BLAIR          CLEAR     77  63  61 SE6       29.91F
COLUMBUS *     SUNNY     79  64  61 SE8       29.90F
FREMONT        PTCLDY    80  63  55 SE9       29.90F
TEKAMAH        CLEAR     80  63  55 SE8       29.89F
WAYNE          SUNNY     76  67  73 S7        29.89F
$$

NEZ050>053-065>068-078-088>093-050200-
SOUTHEAST NEBRASKA

CITY           SKY/WX    TMP DP  RH WIND       PRES   REMARKS
LINCOLN        CLEAR     79  63  57 S9        29.90F
OMAHA EPPLEY   MOCLDY    79  64  60 SE10      29.90F
BEATRICE       CLEAR     81  63  54 S8        29.91S
FALLS CITY     PTCLDY    78  66  66 SE5       29.92S
NEBRASKA CITY  CLEAR     77  58  52 SE6       29.93S
PLATTSMOUTH    CLEAR     77  61  58 SE6       29.92F
$$

NEZ044-045-051>053-067-050200-
OMAHA AREA

CITY           SKY/WX    TMP DP  RH WIND       PRES   REMARKS
OMAHA EPPLEY   MOCLDY    79  64  60 SE10      29.90F
BLAIR          CLEAR     77  63  61 SE6       29.91F
FREMONT        PTCLDY    80  63  55 SE9       29.90F
MILLARD        CLEAR     78  66  65 SE5       29.90F
OFFUTT AFB     CLEAR     77  65  65 SE10      29.90F
PLATTSMOUTH    CLEAR     77  61  58 SE6       29.92F
WAHOO          FAIR      79  65  61 SE8       29.90F
$$



USA.gov is the U.S. government's official web portal to all federal, state and local government web resources and services.